• In Uzbekistan
  • List of Countries
  • For 7 days
  • Water Temperature
  • Weather Map
  • Weather Widgets
  • user-avatar
    Login

    Hourly Weather Malanje

    Today, 21 September, Saturday

    Time Temperature Precipitation Wind Pressure Humidity
    00:00 +24°C° 0 mm 3 mps 665 mmHg 63%
    01:00 +22°C° 0 mm 3 mps 665 mmHg 69%
    02:00 +21°C° 0 mm 2 mps 664 mmHg 73%
    03:00 +20°C° 0 mm 2 mps 664 mmHg 77%
    04:00 +20°C° 0 mm 2 mps 664 mmHg 81%
    05:00 +20°C° 0 mm 2 mps 665 mmHg 80%
    06:00 +20°C° 0 mm 2 mps 665 mmHg 79%
    07:00 +20°C° 0 mm 2 mps 666 mmHg 78%
    08:00 +24°C° 0 mm 2 mps 666 mmHg 64%
    09:00 +28°C° 0 mm 2 mps 667 mmHg 49%
    10:00 +31°C° 0 mm 3 mps 667 mmHg 35%
    11:00 +34°C° 0 mm 2 mps 667 mmHg 31%
    12:00 +35°C° 0 mm 2 mps 666 mmHg 27%
    13:00 +37°C° 0 mm 2 mps 666 mmHg 23%
    14:00 +36°C° 0 mm 2 mps 665 mmHg 24%
    15:00 +35°C° 0 mm 2 mps 665 mmHg 25%
    16:00 +35°C° 0 mm 2 mps 665 mmHg 26%
    17:00 +32°C° 0 mm 2 mps 665 mmHg 32%
    18:00 +30°C° 0 mm 3 mps 665 mmHg 37%
    19:00 +28°C° 0 mm 3 mps 665 mmHg 43%
    20:00 +27°C° 0 mm 3 mps 665 mmHg 45%
    21:00 +26°C° 0 mm 2 mps 665 mmHg 47%
    22:00 +25°C° 0 mm 2 mps 665 mmHg 50%
    23:00 +24°C° 0 mm 2 mps 665 mmHg 56%

    Tomorrow, 22 September, Sunday

    Time Temperature Precipitation Wind Pressure Humidity
    00:00 +22°C° 0 mm 3 mps 664 mmHg 61%
    01:00 +21°C° 0 mm 3 mps 664 mmHg 67%
    02:00 +21°C° 0.1 mm 3 mps 664 mmHg 71%
    03:00 +20°C° 0.1 mm 2 mps 664 mmHg 76%
    04:00 +19°C° 0.1 mm 2 mps 664 mmHg 80%
    05:00 +20°C° 0 mm 2 mps 665 mmHg 78%
    06:00 +20°C° 0 mm 2 mps 665 mmHg 77%
    07:00 +20°C° 0 mm 2 mps 666 mmHg 75%
    08:00 +25°C° 0 mm 2 mps 666 mmHg 61%
    09:00 +28°C° 0 mm 2 mps 667 mmHg 46%
    10:00 +32°C° 0 mm 2 mps 667 mmHg 32%
    11:00 +34°C° 0 mm 2 mps 667 mmHg 29%
    12:00 +36°C° 0 mm 2 mps 666 mmHg 26%
    13:00 +37°C° 0 mm 2 mps 666 mmHg 22%
    14:00 +37°C° 0 mm 2 mps 665 mmHg 23%
    15:00 +36°C° 0 mm 2 mps 665 mmHg 23%
    16:00 +35°C° 0 mm 2 mps 664 mmHg 24%
    17:00 +32°C° 0 mm 2 mps 664 mmHg 29%
    18:00 +30°C° 0 mm 2 mps 664 mmHg 35%
    19:00 +27°C° 0 mm 3 mps 665 mmHg 40%
    20:00 +27°C° 0 mm 3 mps 665 mmHg 41%
    21:00 +26°C° 0 mm 3 mps 665 mmHg 42%
    22:00 +25°C° 0 mm 3 mps 665 mmHg 43%
    23:00 +24°C° 0 mm 2 mps 665 mmHg 50%

    Day after tomorrow, 23 September, Monday

    Time Temperature Precipitation Wind Pressure Humidity
    00:00 +23°C° 0 mm 2 mps 665 mmHg 56%
    01:00 +21°C° 0 mm 2 mps 664 mmHg 62%
    02:00 +20°C° 0 mm 2 mps 664 mmHg 67%
    03:00 +20°C° 0 mm 2 mps 664 mmHg 72%
    04:00 +20°C° 0 mm 1 mps 664 mmHg 77%
    05:00 +21°C° 0 mm 1 mps 664 mmHg 74%
    06:00 +20°C° 0 mm 2 mps 665 mmHg 71%
    07:00 +21°C° 0 mm 2 mps 665 mmHg 68%
    08:00 +25°C° 0 mm 2 mps 666 mmHg 55%
    09:00 +29°C° 0 mm 2 mps 666 mmHg 42%
    10:00 +33°C° 0 mm 3 mps 667 mmHg 29%
    11:00 +35°C° 0 mm 2 mps 667 mmHg 25%
    12:00 +37°C° 0 mm 2 mps 666 mmHg 22%
    13:00 +39°C° 0 mm 1 mps 666 mmHg 19%
    14:00 +37°C° 0 mm 2 mps 665 mmHg 22%
    15:00 +35°C° 0 mm 3 mps 664 mmHg 26%
    16:00 +33°C° 0 mm 3 mps 663 mmHg 30%
    17:00 +31°C° 0 mm 3 mps 664 mmHg 33%
    18:00 +29°C° 0 mm 2 mps 664 mmHg 37%
    19:00 +28°C° 0 mm 1 mps 665 mmHg 40%
    20:00 +27°C° 0 mm 1 mps 665 mmHg 40%
    21:00 +27°C° 0 mm 1 mps 665 mmHg 41%
    22:00 +26°C° 0 mm 1 mps 666 mmHg 41%
    23:00 +26°C° 0 mm 2 mps 666 mmHg 44%

    24 September, Tuesday

    Time Temperature Precipitation Wind Pressure Humidity
    00:00 +25°C° 0 mm 3 mps 665 mmHg 46%
    01:00 +25°C° 0 mm 4 mps 665 mmHg 49%
    02:00 +24°C° 0 mm 3 mps 665 mmHg 56%
    03:00 +21°C° 0 mm 2 mps 664 mmHg 62%
    04:00 +21°C° 0 mm 1 mps 664 mmHg 69%
    05:00 +20°C° 0 mm 2 mps 664 mmHg 68%
    06:00 +21°C° 0 mm 2 mps 665 mmHg 68%
    07:00 +21°C° 0 mm 3 mps 665 mmHg 67%
    08:00 +25°C° 0 mm 3 mps 666 mmHg 56%
    09:00 +28°C° 0 mm 3 mps 666 mmHg 45%
    10:00 +31°C° 0 mm 3 mps 667 mmHg 34%
    11:00 +35°C° 0 mm 2 mps 667 mmHg 30%
    12:00 +36°C° 0 mm 1 mps 666 mmHg 26%
    13:00 +40°C° 0 mm 1 mps 666 mmHg 22%
    14:00 +37°C° 0 mm 1 mps 665 mmHg 25%
    15:00 +36°C° 0 mm 2 mps 665 mmHg 27%
    16:00 +34°C° 0 mm 2 mps 664 mmHg 30%
    17:00 +31°C° 0.2 mm 2 mps 664 mmHg 36%
    18:00 +29°C° 0.2 mm 2 mps 665 mmHg 42%
    19:00 +27°C° 0.2 mm 2 mps 665 mmHg 49%
    20:00 +26°C° 0.1 mm 2 mps 665 mmHg 49%
    21:00 +25°C° 0.1 mm 2 mps 665 mmHg 49%
    22:00 +24°C° 0.1 mm 3 mps 665 mmHg 49%
    23:00 +22°C° 0 mm 3 mps 665 mmHg 57%

    25 September, Wednesday

    Time Temperature Precipitation Wind Pressure Humidity
    00:00 +21°C° 0 mm 2 mps 665 mmHg 64%
    01:00 +20°C° 0 mm 2 mps 664 mmHg 71%
    02:00 +20°C° 0.2 mm 2 mps 665 mmHg 75%
    03:00 +19°C° 0.2 mm 2 mps 665 mmHg 78%
    04:00 +19°C° 0.2 mm 2 mps 665 mmHg 81%
    05:00 +19°C° 0 mm 2 mps 665 mmHg 78%
    06:00 +19°C° 0 mm 2 mps 665 mmHg 75%
    07:00 +19°C° 0 mm 2 mps 666 mmHg 72%
    08:00 +24°C° 0 mm 2 mps 666 mmHg 59%
    09:00 +27°C° 0 mm 2 mps 667 mmHg 46%
    10:00 +30°C° 0 mm 2 mps 668 mmHg 32%
    11:00 +32°C° 0 mm 2 mps 667 mmHg 29%
    12:00 +35°C° 0 mm 2 mps 667 mmHg 26%
    13:00 +37°C° 0 mm 2 mps 666 mmHg 23%
    14:00 +36°C° 0 mm 1 mps 666 mmHg 22%
    15:00 +35°C° 0 mm 1 mps 665 mmHg 22%
    16:00 +35°C° 0 mm 1 mps 665 mmHg 22%
    17:00 +33°C° 0 mm 1 mps 665 mmHg 26%
    18:00 +31°C° 0 mm 2 mps 664 mmHg 30%
    19:00 +28°C° 0 mm 2 mps 664 mmHg 35%
    20:00 +27°C° 0 mm 2 mps 665 mmHg 38%
    21:00 +26°C° 0 mm 2 mps 665 mmHg 42%
    22:00 +25°C° 0 mm 2 mps 665 mmHg 45%
    23:00 +22°C° 0 mm 3 mps 665 mmHg 54%

    26 September, Thursday

    Time Temperature Precipitation Wind Pressure Humidity
    00:00 +21°C° 0 mm 3 mps 664 mmHg 62%
    01:00 +20°C° 0 mm 3 mps 664 mmHg 71%
    02:00 +19°C° 0 mm 3 mps 664 mmHg 74%
    03:00 +19°C° 0 mm 2 mps 664 mmHg 78%
    04:00 +18°C° 0 mm 2 mps 664 mmHg 81%
    05:00 +19°C° 0 mm 2 mps 664 mmHg 78%
    06:00 +19°C° 0 mm 2 mps 665 mmHg 75%
    07:00 +20°C° 0 mm 2 mps 665 mmHg 73%
    08:00 +24°C° 0 mm 2 mps 666 mmHg 60%
    09:00 +28°C° 0 mm 2 mps 667 mmHg 47%
    10:00 +32°C° 0 mm 2 mps 668 mmHg 34%
    11:00 +35°C° 0 mm 2 mps 667 mmHg 30%
    12:00 +37°C° 0 mm 2 mps 667 mmHg 26%
    13:00 +39°C° 0 mm 1 mps 666 mmHg 22%
    14:00 +36°C° 0 mm 1 mps 665 mmHg 24%
    15:00 +35°C° 0 mm 1 mps 665 mmHg 25%
    16:00 +34°C° 0 mm 1 mps 664 mmHg 27%
    17:00 +32°C° 0 mm 1 mps 664 mmHg 31%
    18:00 +30°C° 0 mm 1 mps 664 mmHg 35%
    19:00 +28°C° 0 mm 1 mps 664 mmHg 40%
    20:00 +27°C° 0 mm 2 mps 665 mmHg 43%
    21:00 +26°C° 0 mm 2 mps 665 mmHg 45%
    22:00 +25°C° 0 mm 3 mps 666 mmHg 48%
    23:00 +24°C° 0 mm 3 mps 665 mmHg 56%
    Show more